Terug naar catalogus

STARLINK-35844

ActiefCommunicatieVLEO
NORAD 66880·PAYLOAD·🇺🇸 United States

Gelanceerd Dec 4, 2025 vanaf Vandenberg Space Force Base

Loading…

Volgende Passages (komende 24 uur)

TLE

VersSource: CelesTrak SupGP

Epoch: Sep 15, 2026, 03:34 UTC

1 66880C 25283C   26258.14909722 -.00045151  00000+0 -13341-2 0  2584
2 66880  53.1586 222.6930 0001507  83.9646 209.2851 15.34410048    19

Volg STARLINK-35844 in realtime met AllMySat

Download on the App Store